Vero Beach, FL

10:13 PM EDT on May 26, 2017 (GMT -0400)
Vero Beach Municipal

Weather History for KVRB - January, 2014

Change the Weather History Date:

Wednesday, January 8, 2014

  Actual Average Record
Temperature  
Mean Temperature 56 °F 62 °F  
Max Temperature 69 °F 72 °F 86 °F (1998)
Min Temperature 43 °F 52 °F 30 °F (2006)
Degree Days  
Heating Degree Days 9 5  
Month to date heating degree days 34 40  
Since 1 July heating degree days 63 175  
Cooling Degree Days 0 2  
Month to date cooling degree days 22 16  
Year to date cooling degree days 22 16  
Growing Degree Days 6 (Base 50)    
Moisture  
Dew Point 55 °F    
Average Humidity 81    
Maximum Humidity 100    
Minimum Humidity 61    
Precipitation  
Precipitation 0.00 in 0.08 in 0.74 in (1945)
Month to date precipitation 1.41 0.65  
Year to date precipitation 1.41 0.65  
Sea Level Pressure  
Sea Level Pressure 30.30 in    
Wind  
Wind Speed 10 mph (NE)    
Max Wind Speed 18 mph    
Max Gust Speed 24 mph    
Visibility 10 miles    
Events      
T = Trace of Precipitation, MM = Missing Value Source: NWS Daily Summary

Daily Weather History Graph

Daily Weather History Graph

Search for Another Location

Airport or City:

Trip Planner

Search our weather history database for the weather conditions in past years. The results will help you decide how hot, cold, wet, or windy it might be!

Date:

Astronomy

Jan. 08, 2014 Rise Set
Actual Time 7:13 AM EST 5:43 PM EST
Civil Twilight 6:48 AM EST 6:08 PM EST
Nautical Twilight 6:19 AM EST 6:37 PM EST
Astronomical Twilight 5:50 AM EST 7:06 PM EST
Moon 12:19 PM EST (1/8) 12:36 AM EST (1/8)
Length of Visible Light 11h 20m
Length of Day
10h 29m
First Quarter, 56% of the Moon is Illuminated
Jan 8
First Quarter
Jan 15
Full
Jan 24
Last Quarter
Jan 30
New
Feb 6
First Quarter

Hourly Weather History & Observations

Time (EST) Temp. Windchill Dew Point Humidity Pressure Visibility Wind Dir Wind Speed Gust Speed Precip Events Conditions
12:53 AM 44.1 °F 40.1 °F 43.0 °F 96% 30.34 in 10.0 mi WNW 6.9 mph - N/A   Mostly Cloudy
1:53 AM 45.0 °F 41.2 °F 44.1 °F 97% 30.32 in 10.0 mi NW 6.9 mph - N/A   Overcast
2:53 AM 46.0 °F 42.5 °F 44.1 °F 93% 30.31 in 10.0 mi NW 6.9 mph - N/A   Overcast
3:53 AM 48.0 °F - 46.0 °F 93% 30.29 in 10.0 mi North 5.8 mph - N/A   Overcast
4:53 AM 50.0 °F - 48.0 °F 93% 30.29 in 10.0 mi WNW 3.5 mph - N/A   Overcast
5:53 AM 62.1 °F - 50.0 °F 65% 30.28 in 10.0 mi NE 11.5 mph - N/A   Overcast
6:53 AM 62.1 °F - 51.1 °F 67% 30.30 in 10.0 mi ENE 10.4 mph - N/A   Overcast
7:53 AM 63.0 °F - 52.0 °F 67% 30.32 in 10.0 mi NE 10.4 mph - N/A   Overcast
8:53 AM 63.0 °F - 54.0 °F 72% 30.34 in 10.0 mi NE 17.3 mph 24.2 mph N/A   Overcast
9:53 AM 64.9 °F - 53.1 °F 65% 30.37 in 10.0 mi ENE 12.7 mph - N/A   Overcast
10:53 AM 64.9 °F - 53.1 °F 65% 30.37 in 10.0 mi ENE 11.5 mph - N/A   Overcast
11:53 AM 66.9 °F - 54.0 °F 63% 30.34 in 10.0 mi NE 15.0 mph - N/A   Overcast
12:53 PM 66.9 °F - 53.1 °F 61% 30.30 in 10.0 mi ENE 13.8 mph - N/A   Overcast
1:53 PM 69.1 °F - 55.0 °F 61% 30.27 in 10.0 mi ENE 12.7 mph - N/A   Overcast
2:53 PM 69.1 °F - 57.0 °F 65% 30.27 in 10.0 mi ENE 10.4 mph - N/A   Overcast
3:53 PM 68.0 °F - 57.0 °F 68% 30.27 in 10.0 mi ENE 12.7 mph - N/A   Overcast
4:53 PM 68.0 °F - 57.9 °F 70% 30.27 in 10.0 mi ENE 9.2 mph - N/A   Overcast
5:53 PM 66.9 °F - 57.9 °F 73% 30.27 in 10.0 mi ENE 10.4 mph - N/A   Overcast
6:53 PM 68.0 °F - 57.9 °F 70% 30.27 in 10.0 mi ENE 10.4 mph - N/A   Overcast
7:53 PM 66.9 °F - 60.1 °F 79% 30.28 in 10.0 mi East 10.4 mph - N/A   Overcast
8:53 PM 66.9 °F - 61.0 °F 81% 30.29 in 10.0 mi ENE 11.5 mph - N/A   Overcast
9:53 PM 68.0 °F - 61.0 °F 78% 30.30 in 10.0 mi East 10.4 mph - N/A   Overcast
10:53 PM 66.0 °F - 64.0 °F 93% 30.29 in 8.0 mi East 9.2 mph - N/A   Overcast
11:02 PM 66.2 °F - 64.4 °F 94% 30.29 in 10.0 mi ENE 8.1 mph - N/A   Overcast
11:27 PM 66.2 °F - 62.6 °F 88% 30.29 in 10.0 mi East 9.2 mph - N/A   Overcast
11:36 PM 66.2 °F - 64.4 °F 94% 30.29 in 8.0 mi East 12.7 mph 19.6 mph N/A   Overcast
11:53 PM 66.0 °F - 63.0 °F 90% 30.28 in 10.0 mi East 9.2 mph - N/A   Overcast